Location: *
(33.8649°S, 62.1526°E)
Time: 11:46:32
(UTC+00:00)

Spot 2 Rocket - Pass Details

Date: 17 January 2021
Orbit: 758 x 771 km, 98.5° (Epoch: 02 March)

Event Time Altitude Azimuth Distance (km) Brightness Sun altitude
Rises 17:26:32 0° 159° (SSE) 3,271 7.2 -24.2°
Reaches altitude 10° 17:28:59 10° 152° (SSE) 2,335 6.3 -24.5°
Enters shadow 17:32:45 37° 114° (ESE) 1,183 4.3 -25.0°
